UOSAT 2 (UO-11)

Last updated on Sun Aug 31 2025 00:03:09 GMT+0000 (Coordinated Universal Time)

1 14781U 84021B 25242.15597085 .00002016 00000+0 21677-3 0 9995 2 14781 97.7626 206.9537 0009363 70.9044 289.3186 14.89599211213784
UTC large
Height (km)
Speed (km/s)
/
Latitude / Longitude
Inclination (degrees)
Orbital Period (minutes)
Azimuth
Elevation
Range (km)
Doppler Factor

Next 0 passes for location: London (51.5072 / 0.1276)

Sorry there are no passes over London.